Location: Leiter
(44.7178°N, 106.2687°W)
Time: 23:49:51
(UTC+00:00)

DX 1 - Pass Details

Date: 02 July 2022
Orbit: 616 x 630 km, 98.4° (Epoch: 18 August)

Event Time Altitude Azimuth Distance (km) Brightness Sun altitude
Rises 03:29:22 0° 25° (NNE) 2,930 ? -5.8°
Reaches altitude 10° 03:31:54 10° 39° (NE) 2,016 ? -6.1°
Maximum altitude 03:35:33 25° 95° (E) 1,259 ? -6.6°
Drops below altitude 10° 03:39:11 10° 152° (SSE) 1,996 ? -7.1°
Enters shadow 03:40:02 - 158° (SSE) 2,290 ? -7.2°
